[[{"header":{"parameterUnit":"m.s-1","parameterCategory":1,"la1":30.2991,"la2":30.254,"lo1":-89.0895,"lo2":-89.0444,"dy":0.0017,"dx":0.0017,"nx":28,"ny":28,"refTime":"2023-06-18T21:00:00:Z","depth":0,"parameterNumber":2,"parameterNumberName":"U-component_of_WINDS"},"data":[0,0,0,0,0,0,0,0,0,0,0,0,0,0,0,0,0,0,0,0,0,0,0,0,0,0,0,0,0,0,0,0,0,0,0,0,0,0,0,0,0,0,0,0,0,0,0,0,0,0,0,0,0,0,0,0,0,0,5.6728,5.6728,0,5.6772,5.6773,5.6773,5.6742,5.674,5.6739,5.6738,5.6781,5.6783,5.6786,0,0,0,0,0,0,0,0,0,0,0,0,0,5.6615,5.6617,5.6728,5.6728,5.6729,5.6772,5.6773,5.6773,5.6742,5.674,5.6739,5.6737,5.678,5.6783,5.6786,0,0,0,0,0,0,0,0,0,0,0,0,0,5.6662,5.6618,5.6728,5.6718,5.6718,5.6772,5.6773,5.6773,5.6742,5.674,5.6738,5.6736,5.6779,5.6783,5.6787,5.6851,0,0,5.6798,5.6799,0,0,0,0,0,0,0,0,5.6659,5.6666,5.6719,5.6719,5.6719,5.6749,5.6749,5.6799,5.6743,5.6733,5.6738,5.6735,5.6772,5.6776,5.6789,5.6853,5.6855,5.6798,5.68,5.6802,5.6803,0,0,0,0,0,0,0,5.6656,5.6664,5.6745,5.672,5.672,5.6712,5.6716,5.6758,5.6764,5.6734,5.6732,5.6737,5.6772,5.6786,5.679,5.6856,5.6798,5.6801,5.6804,5.6805,5.6975,5.6977,0,0,0,0,0,0,5.6654,5.6661,5.6744,5.6747,5.6683,5.6716,5.672,5.6742,5.6763,5.6764,5.6739,5.6736,5.678,5.6786,5.6791,5.6868,5.6802,5.6805,5.6808,5.6973,5.6976,5.6978,0,0,0,0,0,0,5.6652,5.6661,5.6742,5.6704,5.6713,5.672,5.6744,5.6744,5.6757,5.6767,5.6768,5.6752,5.6779,5.6786,5.6837,5.6869,5.6807,5.681,5.697,5.6974,5.6977,5.7022,0,0,0,0,0,0,5.6648,5.6661,5.6686,5.6704,5.6715,5.6787,5.6746,5.6746,5.6764,5.676,5.678,5.6781,5.6778,5.6831,5.684,5.6873,5.6813,5.6967,5.6972,5.6976,5.7017,5.7026,5.7034,0,0,0,0,0,5.6645,5.6696,5.6687,5.6697,5.6747,5.6789,5.6795,5.6791,5.6767,5.6792,5.6798,5.6781,5.6865,5.6837,5.6847,5.6881,5.6965,5.697,5.6975,5.7014,5.7025,5.7034,0,0,0,0,0,0,5.668,5.6698,5.6688,5.6748,5.6767,5.6784,5.6814,5.6802,5.6828,5.6823,5.6816,5.6821,5.6874,5.6883,5.6852,5.6945,5.6911,5.6918,5.6937,5.6947,5.6955,5.6951,5.6816,0,0,0,0,0,5.6695,5.6728,5.6742,5.6793,5.6804,5.6808,5.6826,5.6821,5.6841,5.6848,5.6858,5.6878,5.6908,5.6928,5.6957,5.7019,5.7023,5.7048,5.7056,5.7063,5.7069,5.7102,5.7113,5.6995,5.6995,5.6995,0,0,5.6725,5.674,5.6761,5.6801,5.6815,5.6849,5.6815,5.6852,5.6877,5.6854,5.6902,5.6911,5.6931,5.6988,5.7013,5.6997,5.7102,5.7069,5.7075,5.7077,5.7108,5.7119,5.7129,5.6999,5.6998,5.6998,0,0,5.6798,5.6813,5.6857,5.6872,5.6895,5.6898,5.6909,5.6927,5.6932,5.6981,5.6964,5.6994,5.7047,5.7062,5.7077,5.7158,5.7143,5.7168,5.721,5.7243,5.7252,5.726,5.7288,5.7298,5.7174,5.7174,5.7174,0,5.6833,5.6884,5.6881,5.692,5.6938,5.692,5.6963,5.6979,5.701,5.7022,5.7003,5.707,5.7083,5.7143,5.7163,5.7176,5.7187,5.7164,5.7251,5.7259,5.7267,5.7293,5.7304,5.7177,5.7177,5.7176,5.7176,0,5.6926,5.6962,5.6994,5.7025,5.7047,5.7089,5.7091,5.7113,5.7107,5.7112,5.7162,5.7177,5.7208,5.7223,5.7217,5.7282,5.7271,5.7252,5.7218,5.7281,5.7305,5.7316,5.7181,5.718,5.7179,5.7179,0,0,5.702,5.705,5.7061,5.7075,5.71,5.7128,5.7169,5.72,5.7219,5.7242,5.7275,5.7322,5.7305,5.7322,5.7317,5.7346,5.7408,5.7324,5.7324,5.7338,5.748,5.7493,5.7504,5.7399,5.7401,5.7403,5.7478,0,5.7093,5.7164,5.7163,5.7229,5.7262,5.7246,5.7282,5.7301,5.7307,5.7335,5.7342,5.7374,5.735,5.736,5.7388,5.7395,5.7436,5.739,5.7429,5.7431,5.7422,5.7517,5.7531,5.7601,5.7488,5.7489,5.749,0,5.7187,5.7214,5.7283,5.7304,5.7318,5.735,5.7379,5.7407,5.7428,5.743,5.745,5.7442,5.7483,5.745,5.7506,5.7474,5.749,5.7497,5.7499,5.7501,5.7463,5.752,5.7623,5.7633,5.7506,5.7504,5.7503,0,5.7247,5.7301,5.7349,5.7362,5.7387,5.741,5.7421,5.7441,5.746,5.7486,5.7498,5.7528,5.7544,5.7567,5.7567,5.7543,5.7624,5.7591,5.7626,5.7626,5.7642,5.764,5.7747,5.7656,5.7656,5.7655,5.7655,0,5.7328,5.7371,5.7376,5.7406,5.7454,5.7452,5.7499,5.7509,5.7526,5.7557,5.7546,5.7575,5.7574,5.7604,5.7604,5.765,5.7658,5.766,5.7659,5.766,5.766,5.7669,5.7663,5.7658,5.7658,5.7657,5.7657,0,5.7402,5.7407,5.7459,5.748,5.7486,5.752,5.7537,5.7565,5.7571,5.761,5.7619,5.7628,5.7662,5.7665,5.7705,5.7705,5.7761,5.7756,5.7753,5.7752,5.7787,5.7783,5.7901,5.7916,5.7817,5.7818,5.7819,0,5.7452,5.7485,5.7509,5.7529,5.7542,5.7575,5.7595,5.7596,5.7617,5.7644,5.7669,5.7702,5.7729,5.7785,5.7794,5.7824,5.7819,5.7859,5.7823,5.7823,5.7817,5.7815,5.7818,5.7864,5.7866,5.7866,5.7867,0,5.754,5.7541,5.7571,5.7602,5.7626,5.7651,5.7673,5.7691,5.7694,5.7718,5.7753,5.7774,5.7816,5.7848,5.7879,5.789,5.7879,5.7879,5.7888,5.7888,5.7885,5.7886,5.777,5.7875,5.7874,5.7874,5.7873,5.7873,5.7602,5.763,5.7652,5.7686,5.7703,5.7725,5.7752,5.7762,5.7792,5.7826,5.7825,5.7863,5.7885,5.7924,5.7938,5.7968,5.7954,5.7969,5.7972,5.7975,5.7978,5.7882,5.7974,5.7973,5.7973,5.7973,5.7973,0,5.7688,5.7702,5.7733,5.7765,5.7792,5.7781,5.7806,5.7828,5.7863,5.7884,5.7911,5.7952,5.7984,5.7997,5.8029,5.805,5.8046,5.8058,5.8056,5.8058,5.7989,5.7976,5.8061,5.8061,5.8061,5.8061,5.8061,5.8061,5.7735,5.7783,5.7787,5.7843,5.7857,5.7895,5.791,5.793,5.7947,5.7993,5.8021,5.8029,5.8047,5.808,5.8109,5.8112,5.8123,5.8138,5.8138,5.8072,5.8063,5.8055,5.8043,5.8141,5.8141,5.8205,5.8206,5.8206]},{"header":{"parameterUnit":"m.s-1","parameterCategory":1,"la1":30.2991,"la2":30.254,"lo1":-89.0895,"lo2":-89.0444,"dy":0.0017,"dx":0.0017,"nx":28,"ny":28,"refTime":"2023-06-18T21:00:00:Z","depth":0,"parameterNumber":3,"parameterNumberName":"V-component_of_WINDS"},"data":[0,0,0,0,0,0,0,0,0,0,0,0,0,0,0,0,0,0,0,0,0,0,0,0,0,0,0,0,0,0,0,0,0,0,0,0,0,0,0,0,0,0,0,0,0,0,0,0,0,0,0,0,0,0,0,0,0,0,5.6864,5.6865,0,5.6992,5.6993,5.6995,5.698,5.6978,5.6976,5.6974,5.7103,5.7108,5.7113,0,0,0,0,0,0,0,0,0,0,0,0,0,5.6605,5.661,5.6864,5.6865,5.6867,5.6992,5.6993,5.6995,5.6981,5.6978,5.6976,5.6974,5.7101,5.7107,5.7113,0,0,0,0,0,0,0,0,0,0,0,0,0,5.6723,5.6611,5.6864,5.6875,5.6877,5.6991,5.6993,5.6996,5.6981,5.6978,5.6975,5.6972,5.7099,5.7106,5.7114,5.7224,0,0,5.7139,5.7142,0,0,0,0,0,0,0,0,5.6717,5.6733,5.6872,5.6874,5.6877,5.6967,5.6949,5.7072,5.6982,5.6942,5.6974,5.6971,5.706,5.7071,5.7101,5.723,5.7236,5.7139,5.7144,5.7147,5.715,0,0,0,0,0,0,0,5.6709,5.6727,5.6914,5.6874,5.6877,5.6873,5.6886,5.6972,5.7016,5.6945,5.6944,5.696,5.7061,5.7094,5.7104,5.7237,5.7139,5.7146,5.7151,5.7154,5.7463,5.7467,0,0,0,0,0,0,5.6698,5.6721,5.691,5.6918,5.6788,5.688,5.6895,5.6941,5.7015,5.7024,5.6962,5.6959,5.7082,5.7095,5.7109,5.7242,5.7147,5.7155,5.7159,5.746,5.7464,5.7468,0,0,0,0,0,0,5.6692,5.6715,5.6905,5.6819,5.6843,5.6888,5.694,5.6945,5.6978,5.7028,5.7036,5.6988,5.708,5.7097,5.7196,5.7247,5.7158,5.7166,5.7456,5.7461,5.7466,5.7511,0,0,0,0,0,0,5.6685,5.6713,5.6756,5.682,5.6848,5.6991,5.6943,5.695,5.6992,5.6989,5.7054,5.7062,5.7079,5.7184,5.7204,5.7256,5.7172,5.7451,5.7458,5.7464,5.7505,5.7517,5.7527,0,0,0,0,0,5.6676,5.6762,5.6758,5.6781,5.6902,5.6994,5.701,5.7027,5.6997,5.704,5.7072,5.706,5.7238,5.7194,5.7216,5.7272,5.7448,5.7456,5.7464,5.75,5.7514,5.7527,0,0,0,0,0,0,5.6701,5.6771,5.6767,5.6877,5.693,5.6991,5.7046,5.7042,5.7104,5.7098,5.7116,5.7131,5.7231,5.7261,5.7211,5.7382,5.7339,5.7351,5.7359,5.7373,5.7384,5.7374,5.7178,0,0,0,0,0,5.672,5.679,5.6846,5.6938,5.6965,5.7001,5.7042,5.7051,5.7106,5.7128,5.7167,5.722,5.7288,5.7332,5.7397,5.7509,5.7523,5.7558,5.7569,5.7578,5.7588,5.765,5.7667,5.7493,5.7493,5.7493,0,0,5.6759,5.6806,5.6848,5.6945,5.6986,5.7057,5.702,5.7096,5.7149,5.7139,5.7235,5.7266,5.7326,5.7432,5.748,5.746,5.764,5.7588,5.7595,5.76,5.766,5.7676,5.7691,5.7498,5.7498,5.7497,0,0,5.6866,5.6908,5.699,5.7033,5.7098,5.7121,5.7141,5.7203,5.7224,5.732,5.7315,5.7377,5.7493,5.7537,5.7574,5.7699,5.7691,5.7719,5.7777,5.7837,5.7851,5.7863,5.7908,5.7923,5.773,5.773,5.773,0,5.6906,5.7013,5.7032,5.711,5.7152,5.7148,5.723,5.7271,5.7353,5.7382,5.7358,5.7505,5.7545,5.7661,5.7692,5.7722,5.7745,5.7712,5.7847,5.786,5.7872,5.7914,5.7931,5.7733,5.7733,5.7732,5.7732,0,5.7059,5.7134,5.7192,5.7273,5.7322,5.7401,5.7431,5.7479,5.7484,5.751,5.7608,5.7657,5.7732,5.776,5.7765,5.7877,5.7863,5.7843,5.78,5.7891,5.7931,5.7948,5.7737,5.7736,5.7735,5.7735,0,0,5.7185,5.7276,5.7297,5.7334,5.7405,5.7463,5.7542,5.7617,5.7657,5.7714,5.7781,5.788,5.7863,5.7905,5.7915,5.7968,5.8064,5.7942,5.7944,5.7963,5.8191,5.8205,5.8224,5.8059,5.8063,5.8065,5.8186,0,5.7299,5.7441,5.7461,5.7586,5.7655,5.7652,5.7721,5.7772,5.7799,5.7861,5.7889,5.796,5.7931,5.7957,5.8009,5.8041,5.811,5.8033,5.8121,5.8124,5.8106,5.8245,5.8261,5.8372,5.8202,5.8205,5.8206,0,5.7451,5.7514,5.7646,5.7709,5.7739,5.7801,5.7871,5.793,5.7988,5.8004,5.8052,5.8056,5.8137,5.8091,5.8204,5.8151,5.8188,5.821,5.8214,5.8223,5.8171,5.8258,5.8408,5.8425,5.8232,5.823,5.8228,0,5.753,5.7647,5.7742,5.7774,5.7849,5.7893,5.7926,5.7981,5.8024,5.8086,5.8114,5.8184,5.8222,5.8275,5.8298,5.8262,5.8409,5.8365,5.8424,5.8424,5.8455,5.8453,5.8614,5.8479,5.8479,5.8479,5.8478,0,5.7656,5.7737,5.7779,5.7837,5.7928,5.7949,5.8038,5.8069,5.8118,5.8182,5.8184,5.8243,5.8269,5.8333,5.8351,5.8442,5.8459,5.8473,5.8477,5.8474,5.8472,5.8498,5.8491,5.8483,5.8482,5.8481,5.848,0,5.7759,5.779,5.7893,5.7957,5.7975,5.8039,5.8093,5.8149,5.8175,5.8256,5.8276,5.8317,5.8392,5.842,5.8511,5.8523,5.8629,5.8626,5.861,5.8611,5.8669,5.8663,5.8852,5.8878,5.8726,5.8727,5.8729,0,5.7837,5.79,5.797,5.8014,5.8049,5.8119,5.8164,5.8187,5.8234,5.8305,5.8353,5.8428,5.8489,5.8609,5.8647,5.8717,5.8716,5.8778,5.8726,5.8721,5.8717,5.8713,5.872,5.8787,5.8788,5.879,5.8791,0,5.7972,5.7985,5.8051,5.8123,5.8177,5.8234,5.8289,5.8325,5.8356,5.8409,5.8487,5.8534,5.8628,5.8703,5.8775,5.8808,5.8805,5.8807,5.8824,5.8821,5.8809,5.8817,5.8636,5.8802,5.8801,5.88,5.88,5.8799,5.8065,5.8121,5.818,5.8254,5.8298,5.835,5.8406,5.8441,5.8506,5.8585,5.8595,5.8678,5.8734,5.8831,5.8868,5.8933,5.8916,5.8941,5.8948,5.8954,5.8958,5.8799,5.8946,5.8946,5.8945,5.8945,5.8945,0,5.8201,5.8239,5.8306,5.8385,5.8443,5.8436,5.8497,5.8546,5.862,5.8673,5.8734,5.8823,5.8896,5.894,5.9013,5.9056,5.9057,5.9075,5.9072,5.908,5.8969,5.8947,5.9073,5.9073,5.9073,5.9073,5.9073,5.9073,5.8278,5.8373,5.8393,5.8509,5.8546,5.8629,5.8665,5.8713,5.8756,5.8856,5.8917,5.8945,5.8995,5.9072,5.9138,5.9149,5.9176,5.9195,5.9205,5.9101,5.9087,5.9075,5.9054,5.9201,5.9201,5.931,5.9311,5.9312]}]]